Regional Weather Roundup
Issued by NWS

Home | Current Version | Previous Version | Graphics & Text | Print | Product List | Glossary On
Versions: 1 2 3 4 5 6 7 8 9 10 11 12 13 14 15 16 17 18 19 20 21 22 23 24 25 26 27 28 29 30 31 32 33 34 35 36 37 38 39 40 41 42 43 44 45 46 47 48 49 50
000
ASUS43 KIND 251709
RWRIN

WEATHER ROUNDUP FOR INDIANA
NATIONAL WEATHER SERVICE INDIANAPOLIS IN
100 PM EDT SUN JUN 25 2017

NOTE: "FAIR" INDICATES FEW OR NO CLOUDS BELOW 12,000 FEET WITH NO
SIGNIFICANT WEATHER AND/OR OBSTRUCTIONS TO VISIBILITY.

* - STATION DOES NOT REPORT WEATHER SUCH AS PRECIPITATION OR FOG.

+ - STATION NOT QUALITY CONTROLLED BY THE NATIONAL WEATHER SERVICE.
    USE DATA WITH CAUTION...ESPECIALLY DEWPOINT AND RELATIVE
    HUMIDITY OBSERVATIONS.

INZ001>003-010>013-019-020-251800-
NORTHWEST INDIANA

CITY           SKY/WX    TMP DP  RH WIND       PRES   REMARKS
GARY /AIRPORT/ PTSUNNY   70  41  35 W18G31    30.12S
KNOX *+        MOSUNNY   68  34  28 W13G18    30.12S
LA PORTE +     MOSUNNY   68  46  45 W15G23    30.12S
MONTICELLO +   PTSUNNY   69  43  38 W14G24    30.14S
VALPARAISO     MOSUNNY   70  45  40 W16G23    30.12S

$$

LMZ046-743>745-251800-
SOUTHERN LAKE MICHIGAN

STATION/POSITION TIME  TEMP    WIND        PRES    WAVE
                       AIR SEA DIR/SP/G            HT
                 (UTC) (F)     (DEG/KT/KT) (MB)    (FT)
BURNS HARBOR     1640   65     280/ 13/ 15 1020.0S
MICHIGAN CITY    1640   63     240/ 12/ 14   N/A
5NW MICH CITY    1700   64 66  270/ 14/ 17   N/A     3

$$

INZ004-005-014>016-021>024-251800-
NORTH CENTRAL INDIANA

CITY           SKY/WX    TMP DP  RH WIND       PRES   REMARKS
ELKHART        MOSUNNY  N/A N/A N/A W14       30.08R
GOSHEN         MOSUNNY   68  44  42 W14G25    30.10S
LOGANSPORT +   MOSUNNY   68  43  40 NW15G24   30.14F
PERU/GRISSOM   MOSUNNY   69  46  44 W16G26    30.13F
ROCHESTER +    SUNNY     70  45  40 W13G24    30.13S
SOUTH BEND     MOSUNNY   67  47  48 NW17G26   30.11R
WARSAW +       PTSUNNY   66  45  45 W12G24    30.11F

$$

INZ006>009-017-018-025>027-251800-
NORTHEAST INDIANA

CITY           SKY/WX    TMP DP  RH WIND       PRES   REMARKS
AUBURN +       MOSUNNY   68  45  42 W12G22    30.10S
FORT WAYNE     PTSUNNY   67  46  47 W21       30.12S
HUNTINGTON +   MOSUNNY   68  44  43 W13G24    30.13S
KENDALLVILLE + PTSUNNY   66  45  46 W9G25     30.10S

$$

INZ028-029-035-036-043>045-051>053-251800-
WEST CENTRAL INDIANA

CITY           SKY/WX    TMP DP  RH WIND       PRES   REMARKS
CRAWFORDSVL +  MOSUNNY   68  49  50 NW10G17   30.17S
GREENCASTLE +  SUNNY     70  46  43 NW7       30.18S
LAFAYETTE      MOSUNNY   68  48  48 W16G23    30.14F
TERRE HAUTE    SUNNY     73  50  44 W10G21    30.18S

$$

INZ030>032-037>040-046>048-054>057-064-065-251800-
CENTRAL INDIANA

CITY           SKY/WX    TMP DP  RH WIND       PRES   REMARKS
CP ATTERBURY + SUNNY     73  50  43 W9G17     30.16F
COLUMBUS       MOSUNNY   73  46  38 W9G18     30.16F
FRANKFORT +    PTSUNNY   72  49  43 NW18      30.17F
GREENWOOD *+   SUNNY     71  47  42 W9        30.17F
INDIANAPOLIS   MOSUNNY   72  48  42 W17       30.16S
-EAGLE CREEK   SUNNY     71  46  40 W14       30.15F
KOKOMO +       MOSUNNY   69  46  43 W24       30.14F
MARION +       PTSUNNY   66  45  45 W13G22    30.15S
MT COMFORT *+  SUNNY     72  48  43 W15G23    30.16S
SHELBYVILLE    SUNNY     74  50  42 W14G20    30.15F
ZIONSVILLE +   SUNNY     68  47  47 W15G21    30.17S

$$

INZ033-034-041-042-049-050-058-059-251800-
EAST CENTRAL INDIANA

CITY           SKY/WX    TMP DP  RH WIND       PRES   REMARKS
MUNCIE         MOSUNNY   71  46  40 W15G24    30.14F
RICHMOND +     SUNNY     70  48  46 W16G26    30.16S

$$

INZ060-061-067>069-081>083-085>088-251800-
SOUTHWEST INDIANA

CITY           SKY/WX    TMP DP  RH WIND       PRES   REMARKS
EVANSVILLE     SUNNY     81  50  33 W15G21    30.20F
HUNTINGBURG *+ SUNNY     78  51  38 W20G25    30.19F
WASHINGTON +   SUNNY     76  51  41 W10G21    30.18F

$$

INZ062-063-066-070>080-084-089>092-251800-
SOUTH CENTRAL AND SOUTHEAST INDIANA

CITY           SKY/WX    TMP DP  RH WIND       PRES   REMARKS
BEDFORD +      SUNNY     75  46  35 W12G22    30.16F
BLOOMINGTON    SUNNY     74  50  42 NW10G16   30.17F
MADISON *+     SUNNY     77  43  29 W14       30.19F
NORTH VERNON + SUNNY     73  50  43 W22G30    30.17F
SEYMOUR +      SUNNY     79  54  41 W18G30    30.16F

$$





USA.gov is the U.S. government's official web portal to all federal, state and local government web resources and services.